WJA1113 KFLL-CYYZ

Flight info

Callsign WJA1113
Flight time N/A
Altitude 37000
Route AGERS1 DUCEN Q87 VIYAP Q69 ISUZO/N0453F390 Q69 RICCS DCT OXMAN LINNG3
Aircraft B38M/M-SDE1FGHILORVWXY/HB1

Departure

Time N/A
Airport Fort Lauderdale Hollywood International Airport (KFLL)

Arrival

Time 2026-05-04 03:08
Airport Toronto Pearson International Airport (CYYZ)
Time Latitude Longitude Altitude Speed Heading
2026-05-04 01:41 34.62767 -80.75214 37099 ft 484 kts
2026-05-04 01:41 34.66102 -80.74604 37137 ft 483 kts
2026-05-04 01:42 34.72724 -80.73392 37098 ft 480 kts
2026-05-04 01:42 34.79339 -80.72180 37101 ft 481 kts
2026-05-04 01:43 34.85957 -80.70964 37096 ft 481 kts
2026-05-04 01:43 34.92566 -80.69749 37116 ft 479 kts
2026-05-04 01:44 34.99126 -80.68540 37098 ft 476 kts
2026-05-04 01:44 35.05690 -80.67329 37098 ft 477 kts
2026-05-04 01:45 35.12242 -80.66119 37104 ft 477 kts
2026-05-04 01:45 35.22007 -80.64310 37097 ft 473 kts
2026-05-04 01:46 35.28522 -80.63101 37101 ft 474 kts
2026-05-04 01:46 35.35041 -80.61890 37099 ft 474 kts
2026-05-04 01:47 35.40502 -80.60874 37123 ft 474 kts
2026-05-04 01:47 35.46973 -80.59667 37090 ft 473 kts
2026-05-04 01:48 35.53484 -80.58451 37091 ft 474 kts
2026-05-04 01:48 35.60005 -80.57231 37089 ft 474 kts
2026-05-04 01:49 35.66519 -80.56011 37088 ft 474 kts
2026-05-04 01:49 35.73035 -80.54788 37090 ft 474 kts
2026-05-04 01:50 35.79550 -80.53564 37083 ft 473 kts
2026-05-04 01:50 35.86071 -80.52336 37064 ft 475 kts
2026-05-04 01:51 35.92599 -80.51105 37055 ft 475 kts
2026-05-04 01:51 35.99131 -80.49871 37048 ft 475 kts
2026-05-04 01:52 36.05661 -80.48635 37042 ft 475 kts
2026-05-04 01:52 36.12190 -80.47398 37084 ft 475 kts
2026-05-04 01:53 36.18695 -80.46163 37044 ft 471 kts
2026-05-04 01:53 36.25169 -80.44932 37048 ft 471 kts
2026-05-04 01:54 36.31643 -80.43699 37077 ft 471 kts
2026-05-04 01:54 36.38121 -80.42464 37109 ft 470 kts
2026-05-04 01:55 36.44573 -80.41173 37087 ft 469 kts
2026-05-04 01:55 36.51010 -80.39867 37087 ft 469 kts
2026-05-04 01:56 36.57451 -80.38559 37074 ft 469 kts
2026-05-04 01:56 36.63892 -80.37249 37084 ft 470 kts
2026-05-04 01:57 36.70355 -80.35933 37086 ft 471 kts
2026-05-04 01:57 36.76811 -80.34876 37094 ft 467 kts 358°
2026-05-04 01:58 36.83269 -80.33979 37055 ft 466 kts 358°
2026-05-04 01:58 36.89722 -80.33056 37093 ft 467 kts 358°
2026-05-04 01:59 36.96168 -80.32132 37094 ft 466 kts 358°
2026-05-04 01:59 37.02612 -80.31206 37108 ft 466 kts 358°
2026-05-04 02:00 37.09060 -80.30279 37152 ft 466 kts 358°
2026-05-04 02:00 37.15500 -80.29349 37114 ft 465 kts 358°
2026-05-04 02:01 37.21929 -80.28422 37123 ft 465 kts 358°
2026-05-04 02:01 37.28363 -80.27491 37068 ft 466 kts 358°
2026-05-04 02:02 37.34810 -80.26556 37098 ft 466 kts 358°
2026-05-04 02:02 37.41255 -80.25620 37084 ft 466 kts 358°
2026-05-04 02:03 37.47714 -80.24682 37083 ft 467 kts 358°
2026-05-04 02:03 37.54118 -80.23748 37086 ft 467 kts 358°
2026-05-04 02:04 37.60566 -80.22807 37081 ft 466 kts 358°
2026-05-04 02:04 37.67011 -80.21856 37086 ft 467 kts 358°
2026-05-04 02:05 37.73456 -80.20898 37071 ft 466 kts 358°
2026-05-04 02:05 37.79878 -80.19941 37125 ft 466 kts 358°
2026-05-04 02:06 37.86299 -80.18982 37079 ft 463 kts 358°
2026-05-04 02:06 37.92707 -80.18025 37082 ft 464 kts 358°
2026-05-04 02:07 37.99114 -80.17065 37090 ft 463 kts 358°
2026-05-04 02:07 38.05510 -80.16105 37069 ft 463 kts 358°
2026-05-04 02:08 38.11942 -80.15138 37087 ft 467 kts 358°
2026-05-04 02:08 38.18388 -80.14166 37076 ft 466 kts 358°
2026-05-04 02:09 38.24835 -80.13196 37123 ft 467 kts 358°
2026-05-04 02:09 38.31258 -80.12226 37076 ft 463 kts 358°
2026-05-04 02:10 38.37602 -80.11454 37079 ft 456 kts 352°
2026-05-04 02:10 38.43963 -80.11167 37082 ft 458 kts 353°
2026-05-04 02:11 38.50333 -80.10807 37123 ft 458 kts 353°
2026-05-04 02:11 38.56677 -80.10440 37092 ft 456 kts 353°
2026-05-04 02:12 38.63023 -80.10072 37113 ft 457 kts 353°
2026-05-04 02:12 38.69377 -80.09701 37088 ft 457 kts 353°
2026-05-04 02:13 38.75728 -80.09331 37084 ft 457 kts 353°
2026-05-04 02:13 38.82093 -80.08960 37076 ft 457 kts 354°
2026-05-04 02:14 38.88432 -80.08588 37079 ft 455 kts 353°
2026-05-04 02:14 38.94801 -80.07767 37111 ft 465 kts
2026-05-04 02:15 39.01196 -80.06419 37070 ft 466 kts
2026-05-04 02:15 39.07596 -80.05043 37061 ft 466 kts
2026-05-04 02:16 39.13996 -80.03663 37057 ft 466 kts
2026-05-04 02:16 39.20391 -80.02281 37045 ft 465 kts
2026-05-04 02:17 39.26784 -80.00897 37053 ft 466 kts
2026-05-04 02:17 39.33177 -79.99512 37052 ft 466 kts
2026-05-04 02:18 39.39572 -79.98121 37093 ft 466 kts
2026-05-04 02:18 39.45943 -79.96735 37053 ft 463 kts
2026-05-04 02:19 39.52302 -79.95348 37051 ft 464 kts
2026-05-04 02:19 39.58621 -79.93968 37051 ft 464 kts
2026-05-04 02:20 39.64969 -79.92578 37055 ft 461 kts
2026-05-04 02:20 39.71290 -79.91192 37054 ft 461 kts
2026-05-04 02:21 39.77610 -79.89804 37049 ft 461 kts
2026-05-04 02:21 39.83933 -79.88412 37078 ft 459 kts
2026-05-04 02:22 39.90202 -79.87030 37052 ft 456 kts
2026-05-04 02:22 39.96468 -79.85646 37050 ft 457 kts
2026-05-04 02:23 40.02730 -79.84259 37045 ft 457 kts
2026-05-04 02:23 40.08999 -79.82870 37032 ft 456 kts
2026-05-04 02:24 40.15260 -79.81479 37019 ft 456 kts
2026-05-04 02:24 40.21521 -79.80085 37015 ft 456 kts
2026-05-04 02:25 40.27779 -79.78690 37011 ft 457 kts
2026-05-04 02:25 40.34064 -79.77286 37012 ft 459 kts
2026-05-04 02:26 40.40357 -79.75878 37010 ft 459 kts
2026-05-04 02:26 40.46649 -79.74466 37043 ft 459 kts
2026-05-04 02:27 40.52941 -79.73052 37024 ft 458 kts
2026-05-04 02:27 40.59231 -79.71636 37033 ft 459 kts
2026-05-04 02:28 40.65523 -79.70217 37021 ft 459 kts
2026-05-04 02:28 40.70748 -79.69037 37055 ft 459 kts
2026-05-04 02:29 40.78060 -79.67382 37035 ft 458 kts
2026-05-04 02:29 40.84353 -79.65954 37024 ft 458 kts
2026-05-04 02:30 40.89617 -79.64757 37046 ft 458 kts
2026-05-04 02:30 40.95862 -79.63336 37023 ft 458 kts
2026-05-04 02:31 41.02142 -79.61903 37020 ft 458 kts
2026-05-04 02:31 41.08429 -79.60467 37016 ft 458 kts
2026-05-04 02:32 41.14709 -79.59029 37011 ft 457 kts
2026-05-04 02:32 41.20980 -79.57590 37010 ft 457 kts
2026-05-04 02:33 41.27256 -79.56148 37006 ft 457 kts
2026-05-04 02:33 41.33526 -79.54704 37007 ft 457 kts
2026-05-04 02:34 41.39790 -79.53258 37000 ft 457 kts
2026-05-04 02:34 41.46055 -79.51810 37000 ft 457 kts
2026-05-04 02:35 41.52308 -79.50363 37031 ft 457 kts
2026-05-04 02:35 41.55436 -79.49636 36879 ft 452 kts
2026-05-04 02:35 41.58512 -79.48921 36390 ft 447 kts
2026-05-04 02:36 41.61572 -79.48209 35799 ft 445 kts
2026-05-04 02:36 41.64614 -79.47501 35212 ft 443 kts
2026-05-04 02:36 41.67639 -79.46797 34686 ft 439 kts
2026-05-04 02:36 41.70639 -79.46098 34173 ft 436 kts
2026-05-04 02:37 41.73613 -79.45404 33593 ft 433 kts
2026-05-04 02:37 41.76573 -79.44713 32997 ft 429 kts
2026-05-04 02:37 41.79459 -79.44038 32489 ft 425 kts
2026-05-04 02:37 41.82353 -79.43361 31996 ft 420 kts
2026-05-04 02:38 41.85217 -79.42690 31510 ft 415 kts
2026-05-04 02:38 41.88047 -79.42027 31012 ft 411 kts
2026-05-04 02:38 41.90854 -79.41369 30523 ft 408 kts
2026-05-04 02:38 41.93646 -79.40714 30051 ft 404 kts
2026-05-04 02:39 41.96404 -79.40065 29478 ft 401 kts
2026-05-04 02:39 41.99142 -79.39421 28987 ft 397 kts
2026-05-04 02:39 42.01839 -79.38787 28548 ft 391 kts
2026-05-04 02:39 42.04513 -79.38157 28093 ft 387 kts
2026-05-04 02:40 42.07146 -79.37536 27660 ft 382 kts
2026-05-04 02:40 42.09756 -79.36920 27225 ft 378 kts
2026-05-04 02:40 42.12340 -79.36541 26734 ft 370 kts 355°
2026-05-04 02:40 42.14911 -79.36412 26328 ft 368 kts 357°
2026-05-04 02:41 42.17449 -79.36232 25948 ft 364 kts 358°
2026-05-04 02:41 42.19968 -79.36038 25568 ft 361 kts 358°
2026-05-04 02:41 42.22468 -79.35836 25168 ft 358 kts 358°
2026-05-04 02:41 42.24949 -79.35631 24781 ft 355 kts 358°
2026-05-04 02:42 42.27410 -79.35425 24409 ft 353 kts 358°
2026-05-04 02:42 42.29848 -79.35221 24025 ft 350 kts 358°
2026-05-04 02:42 42.32273 -79.35018 23657 ft 348 kts 358°
2026-05-04 02:42 42.34682 -79.34815 23243 ft 346 kts 358°
2026-05-04 02:43 42.37076 -79.34614 22828 ft 343 kts 358°
2026-05-04 02:43 42.39441 -79.34415 22482 ft 339 kts 358°
2026-05-04 02:43 42.41781 -79.34218 22127 ft 335 kts 358°
2026-05-04 02:43 42.44096 -79.34023 21777 ft 331 kts 358°
2026-05-04 02:44 42.46384 -79.33830 21442 ft 328 kts 358°
2026-05-04 02:44 42.48650 -79.33639 21095 ft 325 kts 358°
2026-05-04 02:44 42.50896 -79.33449 20758 ft 322 kts 358°
2026-05-04 02:44 42.53149 -79.33259 20455 ft 327 kts 358°
2026-05-04 02:45 42.55436 -79.33066 20088 ft 331 kts 358°
2026-05-04 02:45 42.57734 -79.32871 19744 ft 331 kts 358°
2026-05-04 02:45 42.60025 -79.32677 19406 ft 329 kts 358°
2026-05-04 02:45 42.62310 -79.32484 19084 ft 329 kts 358°
2026-05-04 02:46 42.64592 -79.32299 18725 ft 327 kts 358°
2026-05-04 02:46 42.66822 -79.32119 18413 ft 324 kts 358°
2026-05-04 02:46 42.69059 -79.31937 18065 ft 321 kts 358°
2026-05-04 02:46 42.71274 -79.31757 17698 ft 317 kts 358°
2026-05-04 02:47 42.73495 -79.31576 17364 ft 314 kts 358°
2026-05-04 02:47 42.75629 -79.31402 17024 ft 310 kts 358°
2026-05-04 02:47 42.77771 -79.31227 16709 ft 307 kts 357°
2026-05-04 02:47 42.79896 -79.31054 16391 ft 306 kts 358°
2026-05-04 02:48 42.82042 -79.30879 16058 ft 311 kts 358°
2026-05-04 02:48 42.84202 -79.30890 15891 ft 310 kts 349°
2026-05-04 02:48 42.86361 -79.31164 15766 ft 312 kts 349°
2026-05-04 02:48 42.88521 -79.31405 15647 ft 312 kts 350°
2026-05-04 02:49 42.90687 -79.31630 15514 ft 312 kts 350°
2026-05-04 02:49 42.92847 -79.31848 15395 ft 311 kts 350°
2026-05-04 02:49 42.95008 -79.32061 15272 ft 311 kts 350°
2026-05-04 02:49 42.97165 -79.32272 15144 ft 310 kts 350°
2026-05-04 02:50 42.99318 -79.32480 15022 ft 310 kts 350°
2026-05-04 02:50 43.01464 -79.32688 14900 ft 310 kts 351°
2026-05-04 02:50 43.03613 -79.32896 14786 ft 309 kts 350°
2026-05-04 02:50 43.05759 -79.33103 14729 ft 309 kts 351°
2026-05-04 02:51 43.07902 -79.33309 14642 ft 309 kts 351°
2026-05-04 02:51 43.10044 -79.33516 14532 ft 308 kts 351°
2026-05-04 02:51 43.12185 -79.33723 14398 ft 308 kts 351°
2026-05-04 02:51 43.14322 -79.33929 14302 ft 308 kts 351°
2026-05-04 02:52 43.16455 -79.34135 14176 ft 307 kts 351°
2026-05-04 02:52 43.18587 -79.34342 14048 ft 307 kts 351°
2026-05-04 02:52 43.20714 -79.34547 13938 ft 306 kts 351°
2026-05-04 02:52 43.22811 -79.34751 13818 ft 306 kts 351°
2026-05-04 02:53 43.24930 -79.34956 13700 ft 306 kts 351°
2026-05-04 02:53 43.27052 -79.35162 13572 ft 305 kts 351°
2026-05-04 02:53 43.29164 -79.35369 13441 ft 304 kts 349°
2026-05-04 02:53 43.31166 -79.36078 13294 ft 293 kts 330°
2026-05-04 02:54 43.33012 -79.37270 13197 ft 294 kts 330°
2026-05-04 02:54 43.34865 -79.38438 13104 ft 292 kts 330°
2026-05-04 02:54 43.36697 -79.39605 12875 ft 289 kts 330°
2026-05-04 02:54 43.38535 -79.40781 12312 ft 294 kts 330°
2026-05-04 02:55 43.42244 -79.43162 11307 ft 289 kts 330°
2026-05-04 02:55 43.44044 -79.44320 10823 ft 282 kts 330°
2026-05-04 02:55 43.45797 -79.45449 10350 ft 275 kts 329°
2026-05-04 02:56 43.47511 -79.46553 9890 ft 269 kts 329°
2026-05-04 02:56 43.49191 -79.47637 9395 ft 264 kts 329°
2026-05-04 02:56 43.50833 -79.48697 8942 ft 258 kts 328°
2026-05-04 02:56 43.52438 -79.49732 8481 ft 253 kts 328°
2026-05-04 02:57 43.54015 -79.50751 8070 ft 247 kts 328°
2026-05-04 02:57 43.55524 -79.51716 7886 ft 233 kts 327°
2026-05-04 02:57 43.56975 -79.52648 7515 ft 226 kts 326°
2026-05-04 02:57 43.58416 -79.53446 7219 ft 225 kts 341°
2026-05-04 02:58 43.60021 -79.53289 6796 ft 244 kts 12°
2026-05-04 02:58 43.61463 -79.51942 6341 ft 259 kts 41°
2026-05-04 02:58 43.62683 -79.50080 5957 ft 261 kts 41°
2026-05-04 02:58 43.63895 -79.48268 5582 ft 258 kts 41°
2026-05-04 02:59 43.65127 -79.46446 5165 ft 259 kts 41°
2026-05-04 02:59 43.66352 -79.44646 4807 ft 256 kts 41°
2026-05-04 02:59 43.67574 -79.42857 4390 ft 256 kts 41°
2026-05-04 02:59 43.68796 -79.41067 3973 ft 256 kts 41°
2026-05-04 03:00 43.70017 -79.39279 3554 ft 256 kts 41°
2026-05-04 03:00 43.71234 -79.37501 3148 ft 256 kts 41°
2026-05-04 03:00 43.72445 -79.35731 2999 ft 254 kts 41°
2026-05-04 03:00 43.73675 -79.33965 3013 ft 253 kts 37°
2026-05-04 03:01 43.75162 -79.32868 2968 ft 235 kts
2026-05-04 03:01 43.76688 -79.32981 3001 ft 211 kts 330°
2026-05-04 03:01 43.77970 -79.33866 3015 ft 204 kts 320°
2026-05-04 03:01 43.79195 -79.34846 3016 ft 203 kts 320°
2026-05-04 03:02 43.80378 -79.35888 2992 ft 197 kts 308°
2026-05-04 03:02 43.81040 -79.37436 2987 ft 184 kts 277°
2026-05-04 03:02 43.80919 -79.39144 2977 ft 180 kts 249°
2026-05-04 03:02 43.80271 -79.40611 3009 ft 182 kts 238°
2026-05-04 03:03 43.79497 -79.42006 3019 ft 183 kts 236°
2026-05-04 03:03 43.78704 -79.43295 3020 ft 166 kts 233°
2026-05-04 03:03 43.77973 -79.44418 3027 ft 155 kts 233°
2026-05-04 03:03 43.77248 -79.45508 3021 ft 153 kts 233°
2026-05-04 03:04 43.76526 -79.46585 2984 ft 153 kts 232°
2026-05-04 03:04 43.75802 -79.47654 2899 ft 149 kts 232°
2026-05-04 03:04 43.75144 -79.48611 2772 ft 125 kts 233°
2026-05-04 03:04 43.74579 -79.49440 2629 ft 116 kts 233°
2026-05-04 03:05 43.74034 -79.50240 2493 ft 113 kts 234°
2026-05-04 03:05 43.73503 -79.51014 2345 ft 110 kts 232°
2026-05-04 03:05 43.72980 -79.51779 2193 ft 109 kts 232°
2026-05-04 03:05 43.72460 -79.52537 2047 ft 109 kts 232°
2026-05-04 03:06 43.71939 -79.53296 1894 ft 109 kts 232°
2026-05-04 03:06 43.71411 -79.54066 1755 ft 112 kts 231°
2026-05-04 03:06 43.70878 -79.54849 1606 ft 113 kts 230°
2026-05-04 03:06 43.70332 -79.55635 1459 ft 115 kts 231°
2026-05-04 03:07 43.69761 -79.56460 1222 ft 121 kts 227°
2026-05-04 03:07 43.69158 -79.57336 1055 ft 130 kts 229°
2026-05-04 03:07 43.68526 -79.58257 921 ft 135 kts 228°
2026-05-04 03:07 43.67875 -79.59213 724 ft 137 kts 227°
2026-05-04 03:08 43.67232 -79.60157 567 ft 128 kts 225°
2026-05-04 03:08 43.66727 -79.60887 566 ft 71 kts 226°
2026-05-04 03:08 43.66462 -79.61296 563 ft 39 kts 238°
2026-05-04 03:08 43.66379 -79.61606 561 ft 27 kts 257°
2026-05-04 03:09 43.66463 -79.61806 569 ft 26 kts 316°
2026-05-04 03:09 43.66594 -79.61977 563 ft 13 kts 317°
2026-05-04 03:09 43.66671 -79.61999 572 ft 15 kts 25°
2026-05-04 03:09 43.66786 -79.61858 569 ft 26 kts 42°
2026-05-04 03:10 43.66929 -79.61681 571 ft 29 kts 42°
2026-05-04 03:10 43.67080 -79.61489 571 ft 30 kts 43°
2026-05-04 03:10 43.67208 -79.61309 580 ft 16 kts 53°
2026-05-04 03:10 43.67295 -79.61283 564 ft 14 kts 314°
2026-05-04 03:11 43.67381 -79.61396 569 ft 22 kts 316°
2026-05-04 03:11 43.67514 -79.61571 570 ft 29 kts 318°
2026-05-04 03:11 43.67666 -79.61769 571 ft 31 kts 316°
2026-05-04 03:11 43.67827 -79.61981 565 ft 33 kts 318°
2026-05-04 03:12 43.67945 -79.62083 573 ft 30 kts 330°
2026-05-04 03:12 43.68099 -79.62266 573 ft 26 kts 317°
2026-05-04 03:12 43.68222 -79.62415 564 ft 20 kts 337°
2026-05-04 03:12 43.68351 -79.62367 570 ft 17 kts 18°
2026-05-04 03:13 43.68429 -79.62374 568 ft 2 kts 348°
2026-05-04 03:13 43.68436 -79.62376 568 ft 0 kts 349°